This is the latest recevied weather packets stored in our database for station/object KC1OEK-13. If no packets are shown the sender has not sent any weather packets the latest 10 day(s).
| Time | Temp. | Humidity | Pressure | Rain* | Wind** | Luminosity | Snow |
|---|---|---|---|---|---|---|---|
| 1787846961 | 22.22° C | 88% | 1019.6 hPa | 0 mm | - | 33 W/m² | - |
| 1787846659 | 22.78° C | 89% | 1019.8 hPa | 0 mm | - | 32 W/m² | - |
| 1787846354 | 22.78° C | 88% | 1019.3 hPa | 0 mm | - | 32 W/m² | - |
| 1787846050 | 22.78° C | 88% | 1019.8 hPa | 0 mm | - | 34 W/m² | - |
| 1787845746 | 22.78° C | 86% | 1019.9 hPa | 0 mm | - | 46 W/m² | - |
| 1787845441 | 23.33° C | 86% | 1019.9 hPa | 0 mm | - | 67 W/m² | - |
| 1787845137 | 23.33° C | 85% | 1020.3 hPa | 0 mm | - | 84 W/m² | - |
| 1787844833 | 23.33° C | 85% | 1020.3 hPa | 0 mm | - | 84 W/m² | - |
| 1787844532 | 23.33° C | 84% | 1019.8 hPa | 0 mm | - | 97 W/m² | - |
| 1787844227 | 23.89° C | 85% | 1019.9 hPa | 0 mm | - | 152 W/m² | - |
| 1787843925 | 23.89° C | 85% | 1019.9 hPa | 0 mm | - | 158 W/m² | - |
| 1787843621 | 23.89° C | 84% | 1020 hPa | 0 mm | - | 139 W/m² | - |
| 1787843318 | 23.89° C | 84% | 1019.7 hPa | 0 mm | - | 259 W/m² | - |
| 1787842711 | 23.33° C | 86% | 1020.1 hPa | 0 mm | - | 344 W/m² | - |
| 1787842402 | 23.33° C | 87% | 1020.1 hPa | 0 mm | - | 177 W/m² | - |
| 1787842101 | 23.33° C | 87% | 1020.3 hPa | 0 mm | - | 133 W/m² | - |
| 1787841797 | 23.33° C | 87% | 1020.2 hPa | 0 mm | - | 143 W/m² | - |
| 1787841493 | 23.33° C | 86% | 1019.9 hPa | 0 mm | - | 182 W/m² | - |
| 1787841191 | 23.33° C | 87% | 1020.2 hPa | 0 mm | - | 171 W/m² | - |
| 1787840887 | 23.89° C | 85% | 1020.1 hPa | 0 mm | - | 189 W/m² | - |
| 1787840582 | 23.33° C | 86% | 1020.1 hPa | 0 mm | - | 185 W/m² | - |
| 1787840277 | 23.89° C | 85% | 1020 hPa | 0 mm | - | 180 W/m² | - |
| 1787839976 | 23.89° C | 86% | 1020.1 hPa | 0 mm | - | 168 W/m² | - |
| 1787839672 | 23.33° C | 85% | 1020.2 hPa | 0 mm | - | 187 W/m² | - |
| 1787839371 | 23.89° C | 86% | 1020 hPa | 0 mm | - | 197 W/m² | - |
* Rain latest hour (hover to see other rain measurements)
** Current wind speed in m/s (hover to see current wind gust speed)